Regional Weather Roundup
Issued by NWS Sioux Falls, SD

Home | Current Version | Previous Version | Text Only | Print | Product List | Glossary On
Versions: 1 2 3 4 5 6 7 8 9 10 11 12 13 14 15 16 17 18 19 20 21 22 23 24 25 26 27 28 29 30 31 32 33 34 35 36 37 38 39 40 41 42 43 44 45 46 47 48 49 50
000
ASUS43 KFSD 220110
RWRFSD

WEATHER ROUNDUP FOR SE SOUTH DAKOTA/SW MINNESOTA/NW IOWA
NATIONAL WEATHER SERVICE SIOUX FALLS SD
700 PM CST SUN JAN 21 2018

NOTE: "FAIR" INDICATES FEW OR NO CLOUDS BELOW 12,000 FEET WITH NO
SIGNIFICANT WEATHER AND OR OBSTRUCTIONS TO VISIBILITY.


SDZ038>040-050-052>070-220200-
SOUTHEAST SOUTH DAKOTA

CITY           SKY/WX    TMP DP  RH WIND       PRES   REMARKS
CHAMBERLAIN    LGT SNOW  32  32  99 NW15      29.96R WCI  22
HURON          CLOUDY    31  29  92 N15       29.97S WCI  20
MADISON        CLOUDY    32  32 100 N15G21    29.91R WCI  22
MITCHELL       CLOUDY    33  31  92 N15       29.93F WCI  23
SIOUX FALLS    CLOUDY    36  31  82 NE16      29.89R
WINNER         LGT SNOW  32  30  92 N17       29.95S FOG     WCI  21
YANKTON        CLOUDY    37  29  72 N17       29.86R
$$

MNZ071-072-080-081-089-090-097-098-220200-
SOUTHWEST MINNESOTA

CITY           SKY/WX    TMP DP  RH WIND       PRES   REMARKS
FAIRMONT       CLOUDY    35  31  85 N9        29.90R WCI  28
JACKSON        CLOUDY    34  30  86 NE16      29.89S WCI  23
LUVERNE        CLOUDY    34  28  80 NE16G23   29.88R WCI  23
MARSHALL       CLOUDY    31  29  92 N12       29.95F WCI  22
MONTEVIDEO     CLOUDY    32  30  93 N10       29.98S WCI  24
PIPESTONE      CLOUDY    32  28  86 NE13G23   29.89R WCI  22
REDWOOD FALLS  CLOUDY    35  30  82 N5        29.95R
TRACY          CLOUDY    33  31  93 N12       29.92F WCI  24
WINDOM         CLOUDY    34  19  55 N14       29.90F WCI  24
WORTHINGTON    CLOUDY    34  29  82 N22       29.87F WCI  22
$$

IAZ001>003-012>014-020>022-031-032-NEZ013-014-SDZ071-220200-
NORTHWEST IOWA

CITY           SKY/WX    TMP DP  RH WIND       PRES   REMARKS
CHEROKEE       CLOUDY    38  32  77 NE12      29.84R
DENISON        CLOUDY    36  36 100 NE13G18   29.79R FOG
ESTHERVILLE    CLOUDY    34  32  92 N17       29.86S WCI  23
LE MARS        MIX PCPN  37  32  81 NE20      29.83R
ORANGE CITY    CLOUDY    37  34  87 NE12      29.85R
SHELDON        CLOUDY    36  30  80 NE18G25   29.84R
SIOUX CITY     LGT RAIN  39  31  72 NE18G26   29.80S
SPENCER        CLOUDY    37  31  78 NE22      29.84S
STORM LAKE     CLOUDY    34  32  93 NE20      29.81R FOG     WCI  22
$$

ABBREVIATIONS USED IN REMARKS
   TC - TEMPERATURE IN CELSIUS
  WCI - WIND CHILL INDEX
   HX - HEAT INDEX
  VSB - VISIBILITY




USA.gov is the U.S. government's official web portal to all federal, state and local government web resources and services.